Weather History for Thermopolis, WY

Change the Weather History Date:

Saturday, January 26, 2013

  Actual Average (KWRL) Record (KWRL)
Temperature  
Mean Temperature 32 °F 18 °F  
Max Temperature 37 °F 32 °F 55 °F (1982)
Min Temperature 28 °F 5 °F -23 °F (2009)
Degree Days  
Heating Degree Days 32 47  
Month to date heating degree days 1253  
Since 1 July heating degree days 4616  
Cooling Degree Days 0 0  
Month to date cooling degree days 0  
Year to date cooling degree days 0  
Moisture  
Dew Point 24 °F    
Average Humidity 72    
Maximum Humidity 87    
Minimum Humidity 56    
Precipitation  
Precipitation 0.00 in 0.00 in 0.28 in (2003)
Month to date precipitation 0.19  
Year to date precipitation 0.19  
Sea Level Pressure  
Sea Level Pressure 29.95 in    
Wind  
Wind Speed 11 mph (SSE)    
Max Wind Speed 28 mph    
Max Gust Speed 31 mph    
Visibility 10 miles    
Events      
T = Trace of Precipitation, MM = Missing Value Source: NWS Daily Summary

Daily Weather History Graph

Daily Weather History Graph

Search for Another Location

Airport:

Trip Planner

Search our weather history database for the weather conditions in past years. The results will help you decide how hot, cold, wet, or windy it might be!

Date:

Astronomy

Jan. 26, 2013 Rise Set
Actual Time 7:34 AM MST 5:16 PM MST
Civil Twilight 7:03 AM MST 5:47 PM MST
Nautical Twilight 6:29 AM MST 6:22 PM MST
Astronomical Twilight 5:55 AM MST 6:56 PM MST
Moon 5:16 PM MST (1/26) 6:53 AM MST (1/26)
Length of Visible Light 10h 43m
Length of Day
9h 42m
Full, 100% of the Moon is Illuminated
Jan 26
Full
Jan 26
Full
Feb 3
Last Quarter
Feb 10
New
Feb 17
First Quarter

Hourly Weather History & Observations

Time (MST) Temp. Windchill Dew Point Humidity Pressure Visibility Wind Dir Wind Speed Gust Speed Precip Events Conditions
12:15 AM 28.4 °F 19.7 °F 21.2 °F 74% 30.06 in 10.0 mi SE 9.2 mph - N/A   Clear
12:35 AM 28.4 °F 22.2 °F 21.2 °F 74% 30.05 in 10.0 mi SSE 5.8 mph - N/A   Clear
12:55 AM 28.4 °F 21.2 °F 23.0 °F 80% 30.05 in 10.0 mi SE 6.9 mph - N/A   Clear
1:15 AM 30.2 °F 20.8 °F 21.2 °F 69% 30.04 in 10.0 mi South 11.5 mph - N/A   Clear
1:35 AM 30.2 °F 21.9 °F 21.2 °F 69% 30.04 in 10.0 mi South 9.2 mph - N/A   Clear
1:55 AM 30.2 °F 19.3 °F 19.4 °F 64% 30.04 in 10.0 mi SW 15.0 mph - N/A   Clear
2:15 AM 30.2 °F 20.2 °F 19.4 °F 64% 30.03 in 10.0 mi South 12.7 mph - N/A   Clear
2:35 AM 30.2 °F 19.3 °F 19.4 °F 64% 30.04 in 10.0 mi SSW 15.0 mph 24.2 mph N/A   Clear
2:55 AM 33.8 °F 20.5 °F 19.4 °F 56% 30.03 in 10.0 mi WSW 27.6 mph 31.1 mph N/A   Clear
3:15 AM 32.0 °F 19.2 °F 19.4 °F 60% 30.03 in 10.0 mi SSW 23.0 mph 27.6 mph N/A   Clear
3:35 AM 33.8 °F 22.5 °F 19.4 °F 56% 30.03 in 10.0 mi SSW 19.6 mph 27.6 mph N/A   Clear
3:55 AM 32.0 °F 22.5 °F 21.2 °F 64% 30.03 in 10.0 mi SSW 12.7 mph 20.7 mph N/A   Clear
4:15 AM 32.0 °F 20.8 °F 19.4 °F 60% 30.03 in 10.0 mi WSW 17.3 mph 23.0 mph N/A   Clear
4:35 AM 32.0 °F 23.6 °F 19.4 °F 60% 30.03 in 10.0 mi SW 10.4 mph - N/A   Clear
4:55 AM 32.0 °F 24.8 °F 19.4 °F 60% 30.03 in 10.0 mi SW 8.1 mph - N/A   Clear
5:15 AM 32.0 °F 24.8 °F 19.4 °F 60% 30.03 in 10.0 mi South 8.1 mph - N/A   Clear
5:35 AM 32.0 °F 24.8 °F 21.2 °F 64% 30.02 in 10.0 mi South 8.1 mph - N/A   Clear
5:55 AM 32.0 °F 22.1 °F 21.2 °F 64% 30.02 in 10.0 mi SSW 13.8 mph 19.6 mph N/A   Clear
6:15 AM 33.8 °F 25.3 °F 21.2 °F 60% 30.01 in 10.0 mi South 11.5 mph 18.4 mph N/A   Clear
6:35 AM 32.0 °F 25.6 °F 21.2 °F 64% 30.01 in 10.0 mi SSE 6.9 mph - N/A   Clear
6:55 AM 30.2 °F 22.6 °F 19.4 °F 64% 30.02 in 10.0 mi SE 8.1 mph - N/A   Clear
7:15 AM 28.4 °F 19.1 °F 19.4 °F 69% 30.01 in 10.0 mi SE 10.4 mph - N/A   Clear
7:35 AM 30.2 °F 19.8 °F 19.4 °F 64% 30.00 in 10.0 mi SE 13.8 mph - N/A   Clear
7:55 AM 28.4 °F 16.2 °F 19.4 °F 69% 30.00 in 10.0 mi SE 17.3 mph - N/A   Clear
8:15 AM 28.4 °F 20.4 °F 19.4 °F 69% 30.00 in 10.0 mi SSE 8.1 mph - N/A   Clear
8:35 AM 32.0 °F 22.5 °F 21.2 °F 64% 30.00 in 10.0 mi SSE 12.7 mph - N/A   Clear
8:55 AM 33.8 °F 25.3 °F 23.0 °F 65% 30.00 in 10.0 mi South 11.5 mph - N/A   Clear
9:15 AM 32.0 °F 22.5 °F 21.2 °F 64% 30.00 in 10.0 mi SSE 12.7 mph - N/A   Clear
9:35 AM 32.0 °F 23.6 °F 21.2 °F 64% 30.01 in 10.0 mi SSE 10.4 mph - N/A   Clear
9:55 AM 32.0 °F 24.8 °F 21.2 °F 64% 30.02 in 10.0 mi SE 8.1 mph - N/A   Clear
10:15 AM 32.0 °F 24.8 °F 21.2 °F 64% 30.02 in 10.0 mi SE 8.1 mph - N/A   Clear
10:35 AM 32.0 °F 23.6 °F 23.0 °F 69% 30.01 in 10.0 mi SSE 10.4 mph - N/A   Clear
10:55 AM 32.0 °F 24.2 °F 23.0 °F 69% 30.01 in 10.0 mi SSE 9.2 mph - N/A   Clear
11:15 AM 32.0 °F 24.8 °F 23.0 °F 69% 30.02 in 10.0 mi SE 8.1 mph - N/A   Clear
11:35 AM 33.8 °F 26.4 °F 23.0 °F 65% 30.01 in 10.0 mi SSE 9.2 mph - N/A   Clear
11:55 AM 33.8 °F 26.4 °F 23.0 °F 65% 30.00 in 10.0 mi SE 9.2 mph - N/A   Clear
12:15 PM 35.6 °F 28.0 °F 23.0 °F 60% 29.99 in 10.0 mi SSE 10.4 mph 16.1 mph N/A   Clear
12:35 PM 35.6 °F 28.6 °F 24.8 °F 65% 29.98 in 10.0 mi SSE 9.2 mph - N/A   Clear
12:55 PM 33.8 °F 25.3 °F 24.8 °F 70% 29.96 in 10.0 mi SE 11.5 mph - N/A   Clear
1:15 PM 35.6 °F 26.2 °F 24.8 °F 65% 29.95 in 10.0 mi SE 15.0 mph - N/A   Clear
1:35 PM 35.6 °F 25.2 °F 24.8 °F 65% 29.93 in 10.0 mi SE 18.4 mph - N/A   Clear
1:55 PM 35.6 °F 26.2 °F 26.6 °F 70% 29.92 in 10.0 mi SE 15.0 mph - N/A   Clear
2:15 PM 35.6 °F 25.9 °F 26.6 °F 70% 29.91 in 10.0 mi SE 16.1 mph - N/A   Clear
2:35 PM 35.6 °F 26.2 °F 26.6 °F 70% 29.90 in 10.0 mi SE 15.0 mph - N/A   Clear
2:55 PM 37.4 °F 28.5 °F 28.4 °F 70% 29.90 in 10.0 mi SE 15.0 mph - N/A   Clear
3:15 PM 35.6 °F 25.9 °F 28.4 °F 75% 29.90 in 10.0 mi SE 16.1 mph - N/A   Clear
3:35 PM 35.6 °F 26.6 °F 28.4 °F 75% 29.91 in 10.0 mi SE 13.8 mph - N/A   Clear
3:55 PM 33.8 °F 24.8 °F 28.4 °F 81% 29.90 in 10.0 mi SE 12.7 mph - N/A   Clear
4:15 PM 33.8 °F 24.8 °F 28.4 °F 81% 29.89 in 10.0 mi SE 12.7 mph - N/A   Clear
4:35 PM 35.6 °F 26.2 °F 28.4 °F 75% 29.89 in 10.0 mi SE 15.0 mph - N/A   Clear
4:55 PM 33.8 °F 25.3 °F 28.4 °F 81% 29.88 in 10.0 mi SE 11.5 mph - N/A   Clear
5:15 PM 33.8 °F 25.3 °F 28.4 °F 81% 29.88 in 10.0 mi SE 11.5 mph - N/A   Clear
5:35 PM 33.8 °F 25.3 °F 28.4 °F 81% 29.87 in 10.0 mi SE 11.5 mph - N/A   Clear
5:55 PM 33.8 °F 24.8 °F 28.4 °F 81% 29.87 in 10.0 mi SE 12.7 mph - N/A   Clear
6:15 PM 33.8 °F 24.3 °F 28.4 °F 81% 29.86 in 10.0 mi SE 13.8 mph - N/A   Clear
6:35 PM 33.8 °F 25.3 °F 28.4 °F 81% 29.87 in 10.0 mi SE 11.5 mph - N/A   Clear
6:55 PM 33.8 °F 26.4 °F 28.4 °F 81% 29.87 in 10.0 mi SE 9.2 mph - N/A   Clear
7:15 PM 33.8 °F 27.7 °F 28.4 °F 81% 29.87 in 10.0 mi SE 6.9 mph - N/A   Clear
7:35 PM 33.8 °F 27.7 °F 28.4 °F 81% 29.86 in 10.0 mi SE 6.9 mph - N/A   Clear
7:55 PM 33.8 °F 27.7 °F 28.4 °F 81% 29.85 in 10.0 mi SE 6.9 mph - N/A   Clear
8:15 PM 33.8 °F 26.4 °F 28.4 °F 81% 29.85 in 10.0 mi SE 9.2 mph - N/A   Clear
8:35 PM 32.0 °F 23.6 °F 28.4 °F 87% 29.84 in 10.0 mi SE 10.4 mph - N/A   Clear
8:55 PM 32.0 °F 24.8 °F 28.4 °F 87% 29.84 in 10.0 mi SE 8.1 mph - N/A   Clear
9:15 PM 32.0 °F 24.8 °F 28.4 °F 87% 29.83 in 10.0 mi SSE 8.1 mph - N/A   Clear
9:35 PM 32.0 °F 24.8 °F 28.4 °F 87% 29.83 in 10.0 mi SE 8.1 mph - N/A   Clear
9:55 PM 32.0 °F 24.2 °F 28.4 °F 87% 29.83 in 10.0 mi SE 9.2 mph - N/A   Clear
10:15 PM 32.0 °F 24.2 °F 28.4 °F 87% 29.83 in 10.0 mi SE 9.2 mph - N/A   Clear
10:35 PM 32.0 °F 24.8 °F 28.4 °F 87% 29.83 in 10.0 mi SE 8.1 mph - N/A   Clear
10:55 PM 32.0 °F 23.0 °F 28.4 °F 87% 29.82 in 10.0 mi SE 11.5 mph - N/A   Clear
11:15 PM 32.0 °F 24.8 °F 28.4 °F 87% 29.83 in 10.0 mi SSE 8.1 mph - N/A   Clear
11:35 PM 32.0 °F 24.8 °F 28.4 °F 87% 29.83 in 10.0 mi SE 8.1 mph - N/A   Clear
11:55 PM 32.0 °F 22.5 °F 28.4 °F 87% 29.81 in 10.0 mi ESE 12.7 mph - N/A   Clear